Location: Wangen+im+Allg�u
(47.7098°N, 9.8383°E)
Time: 06:56:38
(UTC+02:00)

Envisat - Visible Passes

Search period start: 25 April 2018 00:00
Search period end: 05 May 2018 00:00
Orbit: 764 x 766 km, 98.2° (Epoch: 24 April)

Date Brightness Start Highest point End Pass type
(mag) Time Alt. Az. Time Alt. Az. Time Alt. Az.
25 Apr 5.6 22:00:20 10° SW 22:03:40 17° W 22:07:01 10° NW visible
26 Apr 4.6 21:21:57 10° SSW 21:26:35 35° W 21:31:15 10° NNW visible
28 Apr 5.4 21:48:32 10° SW 21:52:23 21° W 21:56:16 10° NW visible
29 Apr 4.2 21:10:33 10° S 21:15:22 43° W 21:20:14 10° NNW visible
30 Apr 5.8 22:16:06 10° WSW 22:18:18 13° W 22:20:31 10° WNW visible
01 May 5.1 21:36:54 10° SSW 21:41:08 26° W 21:45:24 10° NW visible
02 May 3.8 20:59:12 10° S 21:04:10 54° W 21:09:10 10° NNW visible
03 May 5.6 22:03:55 10° SW 22:07:00 16° W 22:10:05 10° NW visible
04 May 4.8 21:25:22 10° SSW 21:29:53 32° W 21:34:27 10° NNW visible
